User: anonymous
Location: Nantong Television Tower
(32.0188°N, 120.8512°E)
Time: 18:13:18
(UTC+08:00)
Language:

ATLAS 3B CENTAUR R/B - Orbit

View from above orbital plane
View from above orbital plane
View from above satellite
View from above satellite

Ground track
Ground track

The orbit data is extracted from the following two-line orbital elements,

1 28118U 03057B   14242.49560023  .00057965  00000-0  14020-2 0  7198
2 28118 028.1522 335.9754 3846840 347.6133 055.2867 07.79892958201378
Epoch (UTC): 30 August 2014 11:53:39
Eccentricity: 0.3846840
inclination: 28.1522°
perigee height: 231 km
apogee height: 8494 km
right ascension of ascending node: 335.9754°
argument of perigee: 347.6133°
revolutions per day: 7.79892958
mean anomaly at epoch: 55.2867°
orbit number at epoch: 20137

The dashed part of the orbit path shows where the satellite is in the earth's shadow,  

DLR